This is the latest recevied weather packets stored in our database for station/object NG7N. If no packets are shown the sender has not sent any weather packets the latest 10 day(s).
| Time | Temp. | Humidity | Pressure | Rain* | Wind** | Luminosity | Snow |
|---|---|---|---|---|---|---|---|
| 1777350260 | 10.56° C | 77% | 1018.9 hPa | 0 mm | - | - | - |
| 1777349959 | 10.56° C | 76% | 1018.9 hPa | 0 mm | - | - | - |
| 1777349658 | 10.56° C | 76% | 1018.8 hPa | 0 mm | - | - | - |
| 1777349359 | 11.11° C | 76% | 1018.8 hPa | 0 mm | - | - | - |
| 1777349060 | 11.11° C | 76% | 1018.8 hPa | 0 mm | - | - | - |
| 1777348460 | 11.11° C | 75% | 1018.4 hPa | 0 mm | - | - | - |
| 1777348159 | 11.11° C | 75% | 1018.4 hPa | 0 mm | - | - | - |
| 1777347858 | 11.11° C | 75% | 1018.2 hPa | 0 mm | - | - | - |
| 1777346658 | 11.67° C | 73% | 1018.1 hPa | 0 mm | - | - | - |
| 1777346059 | 11.67° C | 72% | 1018 hPa | 0 mm | - | - | - |
| 1777345759 | 11.67° C | 72% | 1018 hPa | 0 mm | - | - | - |
| 1777345159 | 11.67° C | 72% | 1017.9 hPa | 0 mm | - | - | - |
| 1777344859 | 11.67° C | 73% | 1017.9 hPa | 0 mm | - | - | - |
| 1777344258 | 12.22° C | 71% | 1017.9 hPa | 0 mm | - | - | - |
| 1777343360 | 12.78° C | 69% | 1017.8 hPa | 0 mm | - | - | - |
| 1777343060 | 12.78° C | 69% | 1017.8 hPa | 0 mm | - | - | - |
| 1777342459 | 12.78° C | 71% | 1017.7 hPa | 0 mm | - | - | - |
| 1777342159 | 12.78° C | 72% | 1017.7 hPa | 0 mm | - | - | - |
| 1777341859 | 12.78° C | 73% | 1017.7 hPa | 0 mm | - | - | - |
| 1777341559 | 12.78° C | 73% | 1017.5 hPa | 0 mm | - | - | - |
| 1777340659 | 13.33° C | 70% | 1017.5 hPa | 0 mm | - | - | - |
| 1777340359 | 13.33° C | 71% | 1017.5 hPa | 0 mm | - | - | - |
| 1777340059 | 13.33° C | 71% | 1017.5 hPa | 0 mm | - | - | - |
| 1777339759 | 13.33° C | 71% | 1017.4 hPa | 0 mm | - | - | - |
| 1777339459 | 13.33° C | 71% | 1017.4 hPa | 0 mm | - | - | - |
* Rain latest hour (hover to see other rain measurements)
** Current wind speed in m/s (hover to see current wind gust speed)